Showing default

GONETS M 11 (M21), 40552

Orbit data source: Space-Track

GONETS M 11 (M21), 40552 is a payload satellite owned by Gonets (CIS) in LEO that was launched on Tue, 31 Mar 2015 UTC via an ROKOT launch vehicle from the Plesetsk Missile And Space Complex (PKMTR). Payloads include a variety of satellites, spacecraft, and rockets equipped with specific instruments for various scientific and technological missions. These include communications satellites like Starlink; space stations such as the ISS; scientific satellites like the Hubble; Earth observation satellites from companies like Planet Labs, Umbra, and HawkEye 360; GPS; miniature CubeSats for education and research; and military/defense satellites.

Loading next visibility...
GONETS M 11 (M21) details
Identifier
40552, 2015-020A
Orbit
LEO
Last TLE update5 hours ago
Origin
Flag of CISGonets (CIS)
ManufacturerResehetnev ISS
MissionOperational Civil Communications
Bus & MotorSTRELA-3M, Unknown motor
Mass225 kg wet, 225 kg dry
Launch date (UTC)
2015-03-31 (10 years ago)
Launch vehicle
ROKOT
Launch site
Plesetsk Missile And Space Complex (PKMTR)
Object type
Payload
Rocket body
Debris
Shape & HBRCyl + 1 Ant, 7 m
Radar Cross Section1.798 m², Large (>1 m²)

Expand to show TLE details & history

TLE from 5 hours ago
0 GONETS M 11 (M21)
1 40552U 15020A   24361.28473010  .00000049  00000-0  27926-3 0  9997
2 40552  82.4864   6.1265 0017488  96.2632 264.0441 12.42884403441912
Epoch: 2024-12-26T06:50Z
Definitive object data (Epoch: 2024-12-26T06:50:00.68Z)
Latitude0.00005°
Longitude168.35735°
Altitude1,498.552 km
Speed7.114 km/s
True Right ascension00h 24m 30s
True Declination0° 00' 00"
Sunlit
Object was in daylight at TLE epoch
Visualization TLE readout
Latitude-74.72157°
Longitude139.50043°
Altitude1,535.254 km
Speed7.092 km/s
Apparent Right ascension23h 15m 00s
Apparent Declination-59° 19' 30"
Sunlit
Object is in daylight
Visualization observer readout
Local Sidereal Time11:34:30
Azimuth172.596° S
Elevation-70.349°
Doppler factor1
Orbital elements
Apogee altitude1,505.514 km
Perigee altitude1,477.988 km
Semi-major axis7,869.888 km
Eccentricity0.0017488
Inclination82.4864°
RAAN6.1265°
Arg. of periapsis96.2632°
True anomaly263.84483°
Mean anomaly264.0441°
Eccentric anomaly263.94446°
Mean motion3.10878 °/min
BSTAR0.00027926
Orbital period115.8 mins
Loading maneuver chart data...
Loading historical data...
Loading historical data...
Loading historical data...
Loading historical data...
Loading historical data...
Loading historical data...
Loading historical data...

GONETS M 11 (M21) Visibility forecast

Observer location: undefined°, undefined

Span
Click to sort rows by Start time (UTC) header in descending order
Start Az.
Max El. time (UTC)
Max El. Az.
Max El.
End time (UTC)
End Az.
15 mins2024-12-26 13:15:01.400Z340.722° N2024-12-26 13:23:01.400Z264.847° W37.111°2024-12-26 13:30:01.400Z202.04° SSW
13 mins2024-12-27 00:20:01.400Z146.568° SSE2024-12-27 00:26:01.400Z88.054° E33.429°2024-12-27 00:33:01.400Z24.225° NE
14 mins2024-12-27 02:16:01.400Z221.615° SW2024-12-27 02:23:01.400Z289.376° WNW33.772°2024-12-27 02:30:01.400Z352.314° N
10 mins2024-12-27 10:31:01.400Z27.765° NE2024-12-27 10:36:01.400Z66.996° ENE18.13°2024-12-27 10:41:01.400Z103.952° ESE
|